www.pogodaiklimat.ru

ПОГОДА в Оберне, CA

  • Прогноз погоды в Оберне
  • Монитор погоды в Оберне
  • Климат в Оберне

АРХИВ ПОГОДЫ в Оберне

Время (UTC), дата Ветер
(напр.,м/с)
 
Видим.   Явления Облачность Т
(С)
Тd
(С)
f
(%)
Тe
(С)
Тes
(С)
Комфортность

P
(гПа)

Po
(гПа)
Тmin
(С)
Tmax
(С)
R
(мм)
SD
(см)
07:55 21.03   16 км    10/10 1800 м  +8.0  +7.0  93  +7  +7      962.7         
08:15 21.03   16 км    10/10 1800 м  +8.0  +7.0  93  +7  +7      962.7         
08:35 21.03   16 км    10/10 1800 м  +8.0  +7.0  93  +7  +7      962.7         
08:55 21.03   16 км    10/10 1800 м  +8.0  +6.0  87  +7  +7      962.7         
09:15 21.03   16 км    10/10 1800 м  +8.0  +7.0  93  +7  +7      962.4         
09:35 21.03   16 км    10/10 1800 м  +8.0  +7.0  93  +7  +7      962.4         
09:55 21.03   16 км    10/10 1800 м  +8.0  +6.0  87  +7  +7      962.4         
10:15 21.03   16 км    10/10 1950 м  +7.0  +6.0  93  +6  +6      962.4         
10:35 21.03   16 км    10/10 1950 м  +8.0  +6.0  87  +7  +7      962.4         
10:55 21.03   16 км    10/10 1950 м  +8.0  +7.0  93  +7  +7      962.4         
11:15 21.03   16 км    10/10 1950 м  +8.0  +7.0  93  +7  +7      962.4         
11:35 21.03   16 км    10/10 1950 м  +8.0  +7.0  93  +7  +7      962.4         
11:55 21.03   16 км    10/10 1950 м  +8.0  +7.0  93  +7  +7      962.7         
12:15 21.03   16 км    10/0 2100 м
[средняя] 
+8.0  +7.0  93  +7  +7      962.7         
12:35 21.03   16 км    10/0 2100 м
[средняя] 
+7.0  +6.0  93  +6  +6      962.7         
12:55 21.03   16 км    10/0 2100 м
[средняя] 
+7.0  +7.0  100  +6  +6      962.7         
13:15 21.03 В  16 км    10/0 2250 м
[средняя] 
+7.0  +7.0  100  +4  +4      962.7         
13:35 21.03   16 км    8/0 2250 м
[средняя] 
+7.0  +6.0  93  +6  +6      963.0         
14:15 21.03   16 км    2/0 2400 м
[средняя] 
+8.0  +7.0  93  +7  +8      963.3         
14:35 21.03   16 км    ясно  +9.0  +7.0  87  +8  +9      963.3         
14:55 21.03   16 км    ясно  +10.0  +7.0  82  +9  +10      963.7         
15:15 21.03   14 км    ясно  +10.0  +7.0  82  +9  +14      964.0         
15:35 21.03   14 км    ясно  +10.0  +7.0  82  +9  +14      963.7         
15:55 21.03   16 км    ясно  +11.0  +7.0  76  +10  +15      963.7         
16:15 21.03   16 км    ясно  +12.0  +7.0  71  +12  +20      963.7         
16:35 21.03   16 км    2/2 690 м  +12.0  +6.0  67  +12  +19      963.7         
16:55 21.03   14 км    ясно  +13.0  +5.0  58  +13  +22      963.7         
17:15 21.03   14 км    ясно  +13.0  +4.0  54  +13  +26  опасность
простуды 
  963.7         
17:35 21.03   16 км    ясно  +14.0  +4.0  51  +14  +27  опасность
простуды 
  963.7         
17:55 21.03   16 км    5/5 1050 м  +14.0  +5.0  55  +14  +21      963.7         
18:15 21.03 З  16 км    2/2 1050 м  +14.0  +5.0  55  +13  +21      963.7         
18:35 21.03 ЮЗ  16 км    2/2 1140 м  +14.0  +5.0  55  +13  +21      963.3         
18:55 21.03 нст  16 км    2/2 1140 м  +15.0  +6.0  55  +15  +24      963.3         
19:15 21.03 нст  16 км    2/2 1050 м  +15.0  +6.0  55  +15  +24      963.3         
19:35 21.03 Ю  16 км    2/2 1110 м  +14.0  +5.0  55  +13  +21      963.3         
19:55 21.03 Ю  16 км    ясно  +15.0  +6.0  55  +14  +25  опасность
простуды 
  963.0         
20:15 21.03 Ю  16 км    5/5 1110 м  +15.0  +6.0  55  +14  +17      963.0         
20:35 21.03 ЮЗ  16 км    5/5 1140 м  +14.0  +5.0  55  +13  +16      963.0         
20:55 21.03 ЮЗ  16 км    2/2 1200 м  +15.0  +5.0  51  +13  +17      962.7         
21:15 21.03 Ю  4
{6} 
16 км    2/2 1230 м  +15.0  +5.0  51  +14  +20      962.7         
21:35 21.03 ЮЗ  4
{7} 
16 км    5/2 1200 м
[средняя] 
+15.0  +5.0  51  +14  +17      963.0         
21:55 21.03 ЮЗ  16 км    8/2 1200 м
[средняя] 
+15.0  +4.0  48  +14  +16      963.0         
22:15 21.03 ЮЗ  16 км    5/2 1200 м
[средняя] 
+15.0  +5.0  51  +14  +16      963.3         
22:35 21.03 ЮЗ  16 км    2/2 1200 м  +15.0  +5.0  51  +14  +17      963.3         
22:55 21.03   16 км    ясно  +14.0  +4.0  51  +14  +23      963.3         
23:15 21.03 З  16 км    ясно  +14.0  +4.0  51  +13  +16      963.3         
23:35 21.03 ЮЗ  16 км    ясно  +14.0  +4.0  51  +13  +16      963.7         
23:55 21.03 З  16 км    ясно  +14.0  +3.0  47  +13  +16      963.7         

 

Местоположение метеостанции Auburn Municipal Airport: широта 38.9500 долгота -121.0667 высота над уровнем моря 467 м.

В архиве по умолчанию представлена погода в Оберне за последние 1-2 суток. Обновление информации о фактической погоде в базе происходит ежечасно! Архивные данные за месяц целиком и за предыдущие месяцы Вы можете получить, выбрав интересующий диапазон дат из раскрывающегося списка и нажав кнопку "Ввод!".

Внимание! Архив погоды МЕТАР в базе сайта хранится не более 60 дней. Нет смысла пытаться выбрать более раннюю дату.

Внимание! Время в таблицах - всемирное. Для получения местного времени необходимо прибавить поправку, которая в Оберне равна -8 ч.

Ветер - указаны скорость ветра в м/с и направление, откуда дует ветер: С - северный, СВ - северо-восточный, В - восточный, ЮВ - юго-восточный, Ю - южный, ЮЗ - юго-западный, З - западный, СЗ - северо-западный.
Видимость - горизонтальная дальность видимости в метрах или километрах. При видимости от 1 до 10 км при отсутствии осадков обычно наблюдается дымка, при ухудшении видимости до 1 км и менее - туман. В сухую погоду видимость может ухудшаться дымом, пылью или мглою.
Атмосферные явления - указаны явления, наблюдавшиеся в указанный момент времени.
Облачность - указаны через наклонную черту верхняя и нижняя облачность в баллах и высота нижней границы облаков в метрах. Внимание: облачность, как и прочие метеорологические величины в США измеряются автоматическими метеостанциями. Указанные значения в баллах носят условный характер и показывают процент времени, в течение которого, в среднем, лазерный луч высотомера отражался от облаков обратно.
T - Температура воздуха - температура, измеренная на высоте 2 м над землей.
Td - Температура точки росы - температура, при понижении до которой содержащийся в воздухе водяной пар достигнет насыщения.
f - Относительная влажность воздуха - влажноcть воздуха, измеренная на высоте 2 м над землей.
Te - Эффективная температура - температура, которую ощущает одетый по сезону человек в тени. Характеристика душности погоды. При расчете учитывается влияние влажности воздуха и скорости ветра на теплоощущения человека.
Tes - Эффективная температура на солнце - температура, которую ощущает человек, с поправкой на солнечный нагрев. Характеристика знойности погоды. Зависит от высоты солнца над горизонтом, облачности и скорости ветра. Ночью, в пасмурную погоду, а также при ветре 12 м/с и более поправка равна нулю.
P - Атмосферное давление - приведенное к уровню моря атмосферное давление.
Po - Атмосферное давление - измеренное на уровне метеостанции атмосферное давление.
Tmin - Минимальная температура - минимум температуры воздуха на высоте 2 м над землей.
Tmax - Максимальная температура - максимум температуры воздуха на высоте 2 м над землей.
R - Количество осадков - Количество выпавших осадков за 3 или 6 часов, мм.
SD - Снежный покров - Высота снежного покрова, см.